www.pogodaiklimat.ru

Погода и климат >> Архив погоды >> Россия >> Ростовская область >> Таганрог


АРХИВ ПОГОДЫ в Таганроге

Время (UTC), дата Ветер
(напр.,м/с)
 
Видим.   Явления Облачность Т
(С)
Тd
(С)
f
(%)
Тe
(С)
Тes
(С)
Комфортность P
(гПа)
Po
(гПа)
Тmin
(С)
Tmax
(С)
R
(мм)
R24
(мм)
S
(см)
15 9.09 СВ 3 20 км ясно +24.0 +1.7 23 +23 +23 комфорт 1021.4 1017.7 +26.2
18 9.09 СВ 3 20 км ясно +21.5 +2.8 29 +21 +21 комфорт 1022.2 1018.4
21 9.09 СВ 4 20 км ясно +19.7 +3.4 34 +20 +20 тепло 1022.3 1018.5
00 10.09 СВ 2 20 км ясно +17.9 +4.1 40 +18 +18 тепло 1022.7 1018.9
03 10.09 СВ 3 20 км ясно +16.5 +4.6 45 +16 +16 по сезону 1023.4 1019.5 +16.5
06 10.09 СВ 4 20 км ясно +19.4 +4.7 38 +20 +23 тепло 1023.9 1020.1 +15.2
09 10.09 В 3 20 км ясно +24.3 +4.0 27 +24 +33 комфорт 1023.7 1020.0
12 10.09 В 4
{10}
20 км ясно +25.3 +2.0 22 +24 +29 комфорт 1022.7 1019.0
15 10.09 В 3
{10}
20 км ясно +24.2 -0.2 20 +23 +23 комфорт 1022.6 1018.9 +25.8
18 10.09 СВ 3
{10}
20 км ясно +21.1 +2.6 29 +21 +21 комфорт 1023.6 1019.8
21 10.09 СВ 3 20 км ясно +19.3 +4.7 38 +20 +20 тепло 1023.8 1020.0
00 11.09 СВ 3 20 км ясно +18.0 +4.9 42 +18 +18 тепло 1024.4 1020.6
03 11.09 С 4 20 км ясно +15.8 +4.3 46 +15 +15 по сезону 1025.7 1021.8 +15.8
06 11.09 СВ 2 20 км ясно +20.3 +3.9 34 +21 +26 комфорт 1027.0 1023.2 +15.5
09 11.09 В 4 20 км ясно +24.9 +4.2 26 +24 +32 комфорт 1026.6 1022.9
12 11.09 В 4 20 км ясно +26.8 +1.4 19 +25 +30 комфорт 1025.6 1021.8
15 11.09 В 4 20 км ясно +25.3 +0.2 19 +24 +24 комфорт 1025.3 1021.5 +27.2
18 11.09 СВ 3 20 км ясно +22.9 +2.6 26 +22 +22 комфорт 1025.8 1022.0
21 11.09 С 3 20 км ясно +18.5 +8.0 50 +19 +19 тепло 1025.8 1022.0
00 12.09 С 2 20 км ясно +17.8 +6.4 47 +18 +18 тепло 1025.8 1022.0
03 12.09 С 3 20 км ясно +16.4 +5.2 47 +16 +16 тепло 1026.5 1022.6 +16.4
06 12.09 СВ 2 20 км ясно +21.6 +5.5 35 +22 +27 комфорт 1027.0 1023.2 +16.4
09 12.09 В 4 20 км ясно +25.4 +2.9 23 +24 +32 комфорт 1026.2 1022.5
12 12.09 ЮВ 1 20 км ясно +27.0 +6.7 28 +27 +35 жарко 1025.0 1021.3
15 12.09 СВ 1 20 км ясно +24.8 +0.8 21 +24 +24 комфорт 1024.2 1020.5 +28.1
18 12.09 С 3 20 км ясно +20.7 -0.2 25 +21 +21 комфорт 1024.7 1020.9
21 12.09 С 4 20 км ясно +19.0 -2.6 23 +19 +19 тепло 1024.1 1020.3
00 13.09 С 4 20 км ясно +17.4 -1.5 28 +17 +17 тепло 1023.7 1019.8
03 13.09 С 3 20 км ясно +15.8 +2.4 40 +15 +15 по сезону 1023.8 1020.0 +15.8
06 13.09 СВ 2 20 км ясно +20.2 +2.8 32 +21 +26 комфорт 1025.0 1021.2 +15.7
09 13.09 ЮВ 2 20 км 1/1 1000 м
[Cu hum]
+25.9 +4.3 25 +25 +35 комфорт 1024.0 1020.3
12 13.09 ЮВ 1 20 км ясно +26.3 +2.4 21 +25 +33 комфорт 1022.5 1018.7
15 13.09 В 2 20 км ясно +25.3 +0.2 19 +24 +24 комфорт 1021.4 1017.7 +27.2
18 13.09 В 4 20 км ясно +23.3 +0.7 22 +22 +22 комфорт 1022.0 1018.3
21 13.09 СВ 1 20 км ясно +19.7 +3.3 34 +21 +21 комфорт 1021.8 1018.0
00 14.09 С 2 20 км ясно +16.6 +6.3 51 +17 +17 тепло 1021.6 1017.7
03 14.09 СВ 2 20 км ясно +15.5 +8.8 64 +15 +15 по сезону 1021.3 1017.4 +15.5
06 14.09 штиль 0 20 км ясно +20.3 +6.9 42 +21 +27 комфорт 1021.6 1017.8 +15.4
09 14.09 ЮВ 1 20 км ясно +25.0 +5.4 28 +25 +37 комфорт 1020.2 1016.5
12 14.09 Ю 1 20 км ясно +26.3 -0.7 17 +24 +32 комфорт 1018.8 1015.1
15 14.09 ЮЗ 1 20 км 1/0
[Ci sp]
+22.7 +9.4 43 +24 +24 комфорт 1017.3 1013.6 +27.1
18 14.09 СЗ 2 20 км 8/0
[Ac trans Ci fib]
+20.2 +1.7 29 +21 +21 комфорт 1017.5 1013.7
21 14.09 СЗ 3 20 км 9/0
[Ac trans]
+19.1 +2.4 33 +20 +20 тепло 1017.6 1013.8
00 15.09 С 5
{11}
20 км 9/9 1000 м
[Sc]
+18.1 +6.2 46 +18 +18 тепло 1017.6 1013.8
03 15.09 С 4
{11}
20 км 9/9 1000 м
[Sc]
+17.0 +5.0 45 +17 +17 тепло 1018.8 1015.0 +17.0
06 15.09 С 4
{10}
20 км 3/0
[Cc]
+18.7 +5.9 43 +19 +22 тепло 1020.9 1017.1 +16.5
09 15.09 С 3 20 км ясно +22.5 -2.5 19 +21 +30 комфорт 1021.2 1017.5
12 15.09 СЗ 2 20 км 1/0
[Ci fib]
+23.8 -6.6 13 +22 +28 комфорт 1020.5 1016.7
15 15.09 С 1 20 км 1/0
[Ci fib]
+21.2 -6.7 15 +20 +20 тепло 1020.2 1016.4 +24.2
18 15.09 С 2 20 км ясно +16.1 +1.8 38 +16 +16 по сезону 1021.1 1017.2
21 15.09 С 2 20 км ясно +13.6 +0.5 41 +13 +13 по сезону 1020.6 1016.7
00 16.09 С 1 20 км ясно +12.3 +2.7 52 +13 +13 по сезону 1019.8 1015.9
03 16.09 С 1 20 км ясно +11.0 +1.9 53 +11 +11 прохладно 1019.1 1015.2 +11.0
06 16.09 ЮЗ 3 20 км ясно +20.2 +6.7 41 +21 +25 комфорт 1018.0 1014.2 +11.0
09 16.09 ЮЗ 4 20 км ясно +23.1 +6.9 35 +24 +31 комфорт 1016.1 1012.3

 

Местоположение метеостанции Таганрог (Ростовская область, Россия): широта 47.20 долгота 38.90 высота над уровнем моря 32 м.

В архиве по умолчанию представлена погода в Таганроге за последнюю неделю. Архивные данные за месяц целиком и за предыдущие месяцы, начиная с января 2011 года, Вы можете получить, выбрав интересующий диапазон дат из раскрывающегося списка и нажав кнопку "Ввод!".


*Определитесь, кто Вы:
робот инопланетянин человек

Внимание! Время в таблицах - всемирное. Для получения местного времени необходимо прибавить поправку, которая равна 3 ч.

Смотрите также архив погоды в соседних городах и на ближайших метеорологических станциях:

Погода в Маргаритово (Ростовская область, Россия) (30 км)
Погода в Матвеевом Кургане (Ростовская область, Россия) (41 км)
Погода в Ейске (Краснодарский край, Россия) (65 км)
Погода в Ростове-на-Дону (Ростовская область, Россия) (70 км)
Погода в Староминская (Краснодарский край, Россия) (75 км)
Погода в Аэропорту Платов (Ростовская область, Россия) (83 км)
Погода в Кущевской (Краснодарский край, Россия) (92 км)
Погода в Должанке (Краснодарский край, Россия) (106 км)
Погода в Мариуполе (Донецкая область, Украина) (108 км)
Погода в Зерноград (Ростовская область, Россия) (114 км)

Пояснения к столбцам:

Ветер - указаны скорость ветра в м/с - средняя за 10 мин, порывы в срок и между сроками (в фигурных скобках) и направление, откуда дует ветер: С - северный, СВ - северо-восточный, В - восточный, ЮВ - юго-восточный, Ю - южный, ЮЗ - юго-западный, З - западный, СЗ - северо-западный.
Видимость - горизонтальная дальность видимости в метрах или километрах. При видимости от 1 до 10 км при отсутствии осадков обычно наблюдается дымка, при ухудшении видимости до 1 км и менее - туман. В сухую погоду видимость может ухудшаться дымом, пылью или мглою.
Явления - указаны атмосферные явления, наблюдавшиеся в срок или в последний час перед сроком; фигурными скобками обозначены явления, наблюдавшиеся между сроками (за 1-3 часа до срока); квадратными скобками обозначены град или гололедные отложения с указанием их диаметра в мм.
Облачность - указаны через наклонную черту общая и нижняя облачность в баллах и высота нижней границы облаков в метрах; квадратными скобками обозначены формы облаков: Ci - перистые, Cs - перисто-слоистые, Cc - перисто-кучевые, Ac - высококучевые, As - высокослоистые, Sc - слоисто-кучевые, Ns - слоисто-дождевые, Cu - кучевые, Cb - кучево-дождевые. Подробнее классификацию облаков см. в Атласе облаков (PDF).
T - Температура воздуха - температура, измеренная на высоте 2 м над землей.
Td - Температура точки росы - температура, при понижении до которой содержащийся в воздухе водяной пар достигнет насыщения.
f - Относительная влажность воздуха - влажноcть воздуха, измеренная на высоте 2 м над землей.
Te - Эффективная температура - температура, которую ощущает одетый по сезону человек в тени. Характеристика душности погоды. При расчете учитывается влияние влажности воздуха и скорости ветра на теплоощущения человека.
Tes - Эффективная температура на солнце - температура, которую ощущает человек, с поправкой на солнечный нагрев. Характеристика знойности погоды. Зависит от высоты солнца над горизонтом, облачности и скорости ветра. Ночью, в пасмурную погоду, а также при ветре 12 м/с и более поправка равна нулю.
P - Атмосферное давление - приведенное к уровню моря атмосферное давление.
Po - Атмосферное давление - измеренное на уровне метеостанции атмосферное давление.
Tmin - Минимальная температура - минимум температуры воздуха на высоте 2 м над землей.
Tmax - Максимальная температура - максимум температуры воздуха на высоте 2 м над землей.
R - Количество осадков - Количество выпавших осадков за период времени, мм. При наведении курсора мыши на число - период времени, за который выпало указанное количество осадков.
R24 - Количество осадков - Количество выпавших осадков за 24 часа, мм.
S - Снежный покров - Высота снежного покрова, см. При наведении курсора мыши на число - состояние снежного покрова и степень покрытия местности в баллах.